LKKB Weather Reports


time (UTC)temp
C
wind
direction
speed
KPH
gust
KPH
rain 1hr
cm
rain 24hr
cm
rain mn
cm
humidity
%
barometer
mb
20260510150208 20 50 9.7 0.0 0.00 0.00 0.00 30 1011.0
20260510143103 20 60 11.3 0.0 0.00 0.00 0.00 32 1011.0
20260510141852 18 30 11.3 0.0 0.00 0.00 0.00 34
20260510140210 20 30 9.7 0.0 0.00 0.00 0.00 37 1011.0
20260510133103 18 60 11.3 0.0 0.00 0.00 0.00 42 1011.0
20260510131954 18 70 11.3 0.0 0.00 0.00 0.00 42
20260510123102 18 60 12.9 0.0 0.00 0.00 0.00 45 1012.0
20260510121854 18 50 11.3 0.0 0.00 0.00 0.00 48
20260510120103 17 50 12.9 0.0 0.00 0.00 0.00 48 1013.0
20260510113103 17 50 12.9 0.0 0.00 0.00 0.00 52 1013.0
20260510111854 17 60 14.5 0.0 0.00 0.00 0.00 48
20260510110212 17 60 12.9 0.0 0.00 0.00 0.00 52 1013.0
20260510103103 17 70 12.9 0.0 0.00 0.00 0.00 51 1014.0
20260510102154 17 70 19.3 0.0 0.00 0.00 0.00 48
20260510100211 16 70 16.1 0.0 0.00 0.00 0.00 51 1014.0
20260510093102 15 80 12.9 0.0 0.00 0.00 0.00 54 1014.0
20260510091852 15 90 14.5 0.0 0.00 0.00 0.00 54
20260510090210 16 80 14.5 0.0 0.00 0.00 0.00 51 1015.0
20260510083103 13 70 9.7 0.0 0.00 0.00 0.00 62 1015.0
20260510081853 12 50 8.0 0.0 0.00 0.00 0.00 62
20260510080211 12 60 9.7 0.0 0.00 0.00 0.00 62 1015.0
20260510073102 12 50 9.7 0.0 0.00 0.00 0.00 71 1016.0
20260510071953 12 30 8.0 0.0 0.00 0.00 0.00 66
20260510070213 12 30 8.0 0.0 0.00 0.00 0.00 71 1016.0
20260510063102 11 50 8.0 0.0 0.00 0.00 0.00 76 1016.0
20260510061855 10 170 3.2 0.0 0.00 0.00 0.00 76
20260510060210 11 0 0.0 0.0 0.00 0.00 0.00 71 1016.0
20260510053103 10 0 0.0 0.0 0.00 0.00 0.00 76 1016.0
20260510051853 8 80 3.2 0.0 0.00 0.00 0.00 76
20260510050211 7 0 3.2 0.0 0.00 0.00 0.00 81 1016.0
20260510043102 6 180 1.6 0.0 0.00 0.00 0.00 86 1017.0
20260510042153 6 120 3.2 0.0 0.00 0.00 0.00 86
20260510040212 6 0 1.6 0.0 0.00 0.00 0.00 86 1016.0
20260510033103 6 80 9.7 0.0 0.00 0.00 0.00 93 1016.0
20260510031851 6 70 8.0 0.0 0.00 0.00 0.00 86
20260510030210 6 70 8.0 0.0 0.00 0.00 0.00 93 1016.0
20260510023210 7 80 4.8 0.0 0.00 0.00 0.00 87 1017.0
20260510021852 6 70 3.2 0.0 0.00 0.00 0.00 93
20260510020212 6 0 1.6 0.0 0.00 0.00 0.00 93 1017.0
20260510013103 7 50 8.0 0.0 0.00 0.00 0.00 87 1017.0
20260510012054 6 50 11.3 0.0 0.00 0.00 0.00 86
20260510010211 7 50 9.7 0.0 0.00 0.00 0.00 87 1017.0
20260510003103 7 40 4.8 0.0 0.00 0.00 0.00 81 1018.0
20260510001853 7 90 8.0 0.0 0.00 0.00 0.00 75
20260510000103 8 80 4.8 0.0 0.00 0.00 0.00 76 1018.0
20260509233103 8 110 4.8 0.0 0.00 0.00 0.00 76 1018.0
20260509231852 7 90 11.3 0.0 0.00 0.00 0.00 81
20260509230209 8 90 9.7 0.0 0.00 0.00 0.00 76 1018.0
20260509223104 10 80 11.3 0.0 0.00 0.00 0.00 71 1018.0
20260509222154 8 80 14.5 0.0 0.00 0.00 0.00 76
20260509220210 11 80 12.9 0.0 0.00 0.00 0.00 71 1018.0
20260509214301 11 90 11.3 0.0 0.00 0.00 0.00 71 1018.0
20260509213103 8 110 9.7 0.0 0.00 0.00 0.00 76 1019.0
20260509211852 8 90 8.0 0.0 0.00 0.00 0.00 76
20260509210211 10 90 9.7 0.0 0.00 0.00 0.00 76 1019.0
20260509203102 11 80 9.7 0.0 0.00 0.00 0.00 71 1019.0
20260509201851 10 70 11.3 0.0 0.00 0.00 0.00 71
20260509200210 11 70 9.7 0.0 0.00 0.00 0.00 71 1019.0
20260509193103 12 70 11.3 0.0 0.00 0.00 0.00 66 1018.0
20260509191953 11 70 11.3 0.0 0.00 0.00 0.00 71
20260509190211 12 70 9.7 0.0 0.00 0.00 0.00 66 1018.0
20260509183102 12 60 9.7 0.0 0.00 0.00 0.00 62 1018.0
20260509181851 12 70 14.5 0.0 0.00 0.00 0.00 62
20260509180213 13 70 14.5 0.0 0.00 0.00 0.00 58 1018.0
20260509173103 15 60 12.9 0.0 0.00 0.00 0.00 54 1018.0
20260509171852 15 60 14.5 0.0 0.00 0.00 0.00 51
20260509170212 15 60 14.5 0.0 0.00 0.00 0.00 51 1018.0
20260509163102 16 70 14.5 0.0 0.00 0.00 0.00 51 1018.0
20260509162152 15 80 14.5 0.0 0.00 0.00 0.00 54
20260509153103 16 40 9.7 0.0 0.00 0.00 0.00 51 1018.0
20260509151851 16 30 11.3 0.0 0.00 0.00 0.00 51